Dutch Harbor, AK

5:45 PM AKST on February 23, 2017 (GMT -0900)
Unalaska

Weather History for PADU - November, 2013

Change the Weather History Date:

Thursday, November 14, 2013

  Actual Average Record
Temperature  
Mean Temperature 52 °F -  
Max Temperature 64 °F 44 °F 64 °F (2013)
Min Temperature 41 °F 30 °F 15 °F (1984)
Degree Days  
Heating Degree Days 12    
Growing Degree Days 2 (Base 50)    
Moisture  
Dew Point 35 °F    
Average Humidity 67    
Maximum Humidity 96    
Minimum Humidity 17    
Precipitation  
Precipitation 0.00 in - - ()
Sea Level Pressure  
Sea Level Pressure 30.46 in    
Wind  
Wind Speed 5 mph (WSW)    
Max Wind Speed 21 mph    
Max Gust Speed 30 mph    
Visibility 9 miles    
Events Fog    
Averages and records for this station are not official NWS values.
T = Trace of Precipitation, MM = Missing Value Source: NWS Daily Summary

Daily Weather History Graph

Daily Weather History Graph

Search for Another Location

Airport or City:

Trip Planner

Search our weather history database for the weather conditions in past years. The results will help you decide how hot, cold, wet, or windy it might be!

Date:

Astronomy

Nov. 14, 2013 Rise Set
Actual Time 9:32 AM AKST 6:08 PM AKST
Civil Twilight 8:53 AM AKST 6:47 PM AKST
Nautical Twilight 8:09 AM AKST 7:30 PM AKST
Astronomical Twilight 7:28 AM AKST 8:12 PM AKST
Moon 4:56 PM AKST (11/14) 6:18 AM AKST (11/14)
Length of Visible Light 9h 54m
Length of Day
8h 35m
Waxing Gibbous, 92% of the Moon is Illuminated
Nov 14
Waxing Gibbous
Nov 17
Full
Nov 25
Last Quarter
Dec 2
New
Dec 9
First Quarter

Hourly Weather History & Observations

Time (AKST) Temp. Windchill Dew Point Humidity Pressure Visibility Wind Dir Wind Speed Gust Speed Precip Events Conditions
12:56 AM 45.0 °F - 41.0 °F 86% 30.58 in 10.0 mi Calm Calm - N/A   Clear
1:56 AM 46.0 °F 43.1 °F 41.0 °F 83% 30.54 in 10.0 mi Variable 5.8 mph - N/A   Clear
2:56 AM 51.1 °F - 43.0 °F 74% 30.54 in 10.0 mi Variable 3.5 mph - N/A   Clear
3:56 AM 48.9 °F - 42.1 °F 77% 30.53 in 10.0 mi Calm Calm - N/A   Clear
4:56 AM 46.9 °F - 41.0 °F 80% 30.51 in 10.0 mi Calm Calm - N/A   Clear
5:56 AM 48.9 °F - 43.0 °F 80% 30.49 in 10.0 mi ESE 4.6 mph - N/A   Clear
6:15 AM 46.4 °F - 42.8 °F 87% 30.46 in 10.0 mi Calm Calm - N/A   Overcast
6:53 AM 50.0 °F - 42.8 °F 76% 30.46 in 10.0 mi East 6.9 mph - N/A   Overcast
6:56 AM 50.0 °F - 43.0 °F 77% 30.48 in 10.0 mi East 10.4 mph - N/A   Overcast
7:56 AM 46.9 °F - 41.0 °F 80% 30.48 in 10.0 mi Variable 3.5 mph - N/A   Overcast
8:56 AM 43.0 °F 39.5 °F 39.9 °F 89% 30.50 in 10.0 mi ENE 5.8 mph - N/A   Clear
9:06 AM 42.8 °F 37.5 °F 39.2 °F 87% 30.47 in 10.0 mi East 9.2 mph - N/A Fog Patches of Fog
9:56 AM 43.0 °F - 41.0 °F 93% 30.51 in 10.0 mi Calm Calm - N/A Fog Scattered Clouds
10:56 AM 41.0 °F - 39.0 °F 93% 30.51 in 10.0 mi Calm Calm - N/A   Clear
11:23 AM 42.8 °F 40.1 °F 39.2 °F 87% 30.48 in 10.0 mi SSE 4.6 mph - N/A Fog Scattered Clouds
11:51 AM 41.0 °F - 39.2 °F 93% 30.48 in 6.0 mi Calm Calm - N/A Fog Scattered Clouds
11:56 AM 41.0 °F - 39.9 °F 96% 30.49 in 6.0 mi Calm Calm - N/A Fog Scattered Clouds
12:00 PM 41.0 °F 37.1 °F 39.2 °F 93% 30.48 in 0.2 mi NW 5.8 mph - N/A Fog Fog
12:12 PM 41.0 °F 39.0 °F 39.2 °F 93% 30.47 in 4.0 mi WNW 3.5 mph - N/A Fog Mostly Cloudy
12:46 PM 42.8 °F - 39.2 °F 87% 30.46 in 10.0 mi Calm Calm - N/A Fog Scattered Clouds
12:56 PM 41.0 °F 38.0 °F 39.9 °F 96% 30.48 in 10.0 mi NW 4.6 mph - N/A Fog Scattered Clouds
1:56 PM 44.1 °F - 41.0 °F 89% 30.45 in 10.0 mi Calm Calm - N/A   Clear
2:56 PM 55.9 °F - 26.1 °F 32% 30.43 in 10.0 mi West 5.8 mph - N/A   Mostly Cloudy
3:56 PM 63.0 °F - 17.1 °F 17% 30.42 in 10.0 mi WSW 11.5 mph 23.0 mph N/A   Mostly Cloudy
4:56 PM 64.0 °F - 21.0 °F 19% 30.40 in 10.0 mi WSW 19.6 mph 25.3 mph N/A   Mostly Cloudy
5:56 PM 63.0 °F - 23.0 °F 22% 30.40 in 10.0 mi WSW 20.7 mph 25.3 mph N/A   Clear
6:56 PM 63.0 °F - 24.1 °F 23% 30.39 in 10.0 mi SW 18.4 mph 23.0 mph N/A   Scattered Clouds
7:56 PM 62.1 °F - 25.0 °F 24% 30.39 in 10.0 mi WSW 17.3 mph 29.9 mph N/A   Clear
8:56 PM 60.1 °F - 27.0 °F 28% 30.39 in 10.0 mi SW 20.7 mph 25.3 mph N/A   Clear
9:56 PM 61.0 °F - 23.0 °F 23% 30.39 in 10.0 mi WSW 18.4 mph 24.2 mph N/A   Clear
10:56 PM 57.9 °F - 27.0 °F 31% 30.40 in 10.0 mi Variable 6.9 mph 16.1 mph N/A   Clear
11:56 PM 57.9 °F - 21.9 °F 25% 30.41 in 10.0 mi Variable 4.6 mph - N/A   Clear